Find Globalstar M022

NORAD ID: 25649 Int'l Des: 1999-012 Owner: GLOBT Country: US Constellation: globalstar operational
LEOCIRCULAR

实时位置

正在加载3D地球...

关于 Globalstar M022

正在加载描述...

即将过境

Passes for default location (London). Set your location on the main map for personalized predictions.

高度历史

Loading altitude history...

两行轨道根数

1 25649U 99012A 26106.54074307 -.00000063 00000-0 28777-3 0 9996
2 25649 52.0031 186.2381 0002550 59.4242 313.8893 12.02512139212877
Epoch: Apr 16, 2026 • Age: 11 hours

当前状态

高度 1673.4 km
速度 7.04 km/s
星下点 46.09°N, 113.39°E
发射日期 Mar 15, 1999
运行时间 27 years
类型 communications

技术详情

分类 Payload
质量 450.00 kg
干质量 380.00 kg
总质量 450.00 kg
长度 1.50 m
直径 0.60 m
跨度 12.00 m
形状 Box + 2 Pan
制造商 LOR
平台类型 LS-400
阶段状态 In Orbit
所有者/国家 GLOBT/US

Most Searched